カタログに戻る

STARLINK-36211

運用中通信VLEO
NORAD 67218·PAYLOAD·🇺🇸 United States

打ち上げ Dec 17, 2025 から Vandenberg Space Force Base

Loading…

次のパス (今後24時間)

TLE

最新Source: CelesTrak SupGP

元期: Sep 15, 2026, 03:32 UTC

1 67218C 25304AC  26258.14770833 -.00030540  00000+0 -25600-2 0  2580
2 67218  70.0015  56.7388 0002613 267.9761 111.3132 14.98337037    14

AllMySatでSTARLINK-36211をリアルタイム追跡

Download on the App Store